Flag for Argentina Weather past 2 weeks in Tucumán, Tucumán, Argentina

Now
61 °F

Passing clouds.


Feels Like: 61 °F
Forecast: 61 / 75 °F
Wind: 3 mph from Southwest

Location: Tucuman Aerodrome


UV Index: 3 (Moderate)

Visibility: 5 mi


Pressure: 29.98 "Hg

Humidity: 88%

Dew point: 57 °F

Location of TucumánLocation

Historic Weather in Tucumán

°F

Tucumán temperature yesterday

Maximum temperature yesterday: 72 °F (at 5:00 PM)
Minimum temperature yesterday: 61 °F (at 6:00 AM)
Average temperature yesterday: 65 °F

Past Weeks' High & Low Weather Summary

 TemperatureHumidityPressure
High86 °F (Apr 4, 2:00 PM)100% (Apr 4, 12:00 AM)30.39 "Hg (Apr 4, 12:00 AM)
Low46 °F (Apr 14, 6:00 AM)39% (Apr 9, 4:00 PM)29.53 "Hg (Apr 7, 4:00 PM)
Average68 °F78%29.94 "Hg
* Reported Apr 3 11:00 PM — Apr 18 11:00 PM, Tucumán, Weather by CustomWeather, © 2014

Note: Actual official high and low records may vary slightly from our data, if they occured in-between our weather recording intervals... More about our weather records

Advertising

Historic Weather Conditions — Data for Previous 24 hours

 ConditionsComfort  
Time TempWeatherWind HumidityBarometerVisibility
11:00 PM
Apr 18
61 °FPassing clouds.3 mph88%29.98 "Hg5 mi
10:00 PM61 °FClear.2 mph88%29.95 "Hg6 mi
9:00 PM63 °FClear.No wind88%29.92 "Hg6 mi
8:00 PM63 °FPassing clouds.6 mph88%29.89 "Hg5 mi
7:00 PM64 °FPassing clouds.6 mph83%29.89 "Hg5 mi
6:00 PM68 °FScattered clouds.6 mph73%29.86 "Hg5 mi
5:00 PM72 °FScattered clouds.2 mph65%29.86 "Hg6 mi
4:00 PM70 °FBroken clouds.2 mph69%29.89 "HgN/A
3:00 PM70 °FBroken clouds.3 mph73%29.92 "HgN/A
2:00 PM68 °FBroken clouds.No wind69%29.95 "HgN/A
1:00 PM66 °FBroken clouds.2 mph73%29.98 "HgN/A
12:00 PM64 °FBroken clouds.No wind73%30.01 "HgN/A
11:00 AM63 °FMore clouds than sun.2 mph83%30.04 "Hg6 mi
10:00 AM63 °FMore clouds than sun.5 mph88%30.04 "Hg5 mi
9:00 AM61 °FDrizzle. Fog.5 mph94%30.04 "Hg5 mi
8:00 AM61 °FMore clouds than sun.2 mph94%30.04 "Hg6 mi
7:00 AM61 °FMostly cloudy.5 mph88%30.04 "Hg5 mi
6:00 AM61 °FMostly cloudy.7 mph88%30.04 "Hg5 mi
5:00 AM63 °FDrizzle. Mostly cloudy.9 mph88%30.04 "Hg5 mi
4:00 AM64 °FPassing clouds.5 mph88%30.07 "HgN/A
3:00 AM64 °FPassing clouds.7 mph88%30.07 "HgN/A
2:00 AM66 °FMostly cloudy.7 mph83%30.07 "HgN/A
1:00 AM66 °FMostly cloudy.5 mph83%30.07 "HgN/A
12:00 AM68 °FClear.12 mph78%30.07 "Hg10 mi
Weather by CustomWeather, © 2014

See weather overview